Vorticity
38 35 28 21 20 23 25 27 27 24 21 19 19 18 15 12 11 11 12 13 14 14 14 14 13 12 11 10 10 9 7 5 3 5 12 25 35 38 34 24 17 12 9 8 7 6 6 8 6 5 4 4 4 5 5 5 5 2 -5 -13 2 17 26 25 19 16 17 19 20
37 36 30 22 20 22 24 27 27 25 23 20 19 17 15 11 10 10 11 13 14 14 14 14 13 12 11 11 10 9 7 4 2 6 15 29 37 37 32 22 16 12 9 8 7 7 7 7 6 5 4 4 5 5 5 5 3 -6 -13 -6 19 35 40 36 28 20 16 13 12
36 37 32 23 21 21 23 26 26 25 23 21 19 17 14 11 10 10 11 12 13 14 14 14 13 12 11 11 10 8 6 3 2 8 18 32 38 36 29 20 15 12 9 8 7 7 7 6 5 5 4 4 5 5 5 6 -0 -15 -25 -16 1 10 15 16 13 10 7 5 4
35 37 34 25 21 21 23 25 26 25 23 21 19 16 12 10 9 10 10 12 13 14 14 14 13 12 11 11 10 8 5 2 4 11 22 35 38 34 26 18 14 12 10 7 6 6 6 5 5 4 4 4 5 5 5 4 1 -12 -23 -24 -18 -14 -11 -7 -1 4 7 8 6
35 38 34 25 22 21 22 24 25 25 23 21 18 14 11 9 8 9 10 11 13 14 14 14 13 12 11 10 9 7 4 2 6 15 26 37 37 32 24 18 14 11 10 7 6 6 5 5 5 4 4 5 6 6 5 3 3 -1 -5 -8 -8 -8 -8 -4 1 4 6 6 3
37 38 33 25 21 21 22 25 25 24 23 21 17 13 10 8 8 9 10 12 13 14 14 14 12 11 10 9 8 6 4 2 9 19 30 37 35 29 22 17 13 10 8 6 6 5 5 5 4 4 4 5 6 6 5 2 2 3 4 2 4 4 4 5 6 5 4 1 -3
38 36 30 23 21 21 23 25 25 24 23 20 16 12 9 8 8 8 10 12 13 14 14 13 11 10 9 9 7 5 4 5 14 24 32 36 32 26 20 16 12 9 7 6 5 5 5 4 4 4 5 6 7 7 5 2 1 2 4 6 7 6 6 7 5 2 -0 -4 -1
38 33 27 22 20 22 24 26 25 24 22 19 14 11 9 8 8 9 10 12 13 14 13 12 10 9 9 8 6 5 5 9 19 28 33 33 29 24 19 15 12 9 6 6 5 5 4 4 4 4 5 7 8 7 5 2 2 2 3 5 4 4 3 3 0 -1 0 3 13
36 29 23 19 20 23 26 27 26 24 21 17 13 10 9 8 8 9 10 12 13 13 12 11 9 9 8 7 5 5 8 14 24 30 33 31 26 22 18 14 12 9 6 5 5 4 4 4 4 5 6 8 8 7 6 4 3 4 4 5 4 2 0 -0 2 5 10 15 27
29 23 18 18 21 25 27 28 25 23 20 15 12 10 8 7 8 10 11 13 13 12 11 10 9 8 7 6 5 7 12 20 27 31 31 28 24 19 16 14 10 7 6 5 4 4 4 3 4 5 7 8 8 7 6 6 6 6 5 5 3 1 1 5 12 17 22 27 34
20 16 15 18 23 27 28 27 25 22 18 14 12 9 8 8 9 10 12 13 12 11 10 9 9 8 7 5 6 10 16 24 29 30 29 27 22 17 13 13 8 6 5 5 4 4 3 3 4 6 7 8 7 7 8 8 7 7 6 4 0 3 11 23 29 31 32 33 29
14 14 17 22 26 28 28 25 23 20 17 13 11 9 8 8 10 11 12 12 11 10 10 9 9 7 6 5 8 14 21 28 30 30 28 25 20 16 12 9 7 6 5 5 4 3 3 3 4 6 7 8 9 10 10 9 8 7 6 2 -4 1 12 25 26 27 25 21 11
14 18 22 27 28 27 25 23 21 18 16 12 10 9 9 10 11 12 12 12 11 10 10 9 8 6 5 7 12 19 25 29 30 29 26 23 17 13 10 7 6 5 5 5 3 3 3 3 4 6 7 10 13 14 12 9 8 8 6 2 -6 -5 1 7 8 9 9 6 -0
19 24 26 27 26 24 23 21 19 17 14 11 10 10 10 11 12 12 12 12 11 10 9 8 6 5 6 10 17 22 27 30 29 28 25 20 14 10 8 6 5 5 5 4 3 2 3 4 4 4 6 10 15 14 11 7 7 6 5 2 -4 -5 -3 -2 -3 -2 2 5 2
24 26 26 25 23 22 21 19 17 14 12 10 10 11 12 12 12 12 11 11 11 10 8 6 5 6 9 15 21 25 28 29 29 26 22 16 11 8 6 4 4 5 5 3 2 3 4 4 2 3 6 11 12 9 6 4 3 3 3 2 1 1 0 -2 -5 -2 5 13 11
25 25 24 23 23 21 20 17 14 12 10 10 11 12 12 12 12 11 11 11 10 8 6 5 6 9 13 20 24 27 29 28 26 23 18 12 9 6 4 4 5 6 5 1 3 4 5 1 1 8 15 14 7 3 1 0 -0 0 1 3 4 4 2 -1 -0 6 14 20 14
24 24 25 25 23 21 17 14 11 11 11 12 12 12 12 12 11 11 11 10 8 6 5 5 8 12 18 23 26 27 27 26 23 19 14 10 8 5 3 5 6 5 3 -1 4 4 2 -1 9 19 25 18 8 2 -2 -2 -2 -0 2 4 4 2 1 2 10 18 22 19 11
26 28 28 26 21 17 13 10 11 11 12 12 12 12 12 11 11 10 9 8 6 5 5 7 11 17 22 26 27 26 25 23 20 16 12 10 7 4 3 5 5 3 1 2 2 -0 0 10 21 25 24 20 12 5 -0 -2 -0 2 4 5 1 1 4 13 23 24 20 12 6
30 28 24 19 14 11 10 11 12 12 13 12 12 12 12 11 10 9 7 5 5 5 7 11 16 21 25 27 26 24 22 21 17 14 11 11 6 3 3 4 3 2 1 1 -6 -2 8 20 17 13 12 16 12 7 2 1 4 5 5 2 -0 5 14 25 24 18 11 5 4
25 20 14 10 10 11 12 13 12 12 12 12 12 12 11 10 9 7 6 5 5 7 11 15 20 24 26 26 25 23 21 18 14 12 10 8 4 1 -0 2 4 4 -1 -12 -8 4 12 8 -1 -2 3 10 9 7 6 5 7 6 4 -1 3 12 19 19 11 6 3 4 4
14 12 11 11 13 14 13 12 12 12 12 13 12 12 10 8 6 5 5 6 7 11 15 19 23 25 26 25 24 21 18 13 11 10 8 3 -2 -2 2 8 8 1 -11 -23 -1 7 5 -4 -6 -2 3 7 7 7 7 8 8 5 2 -1 8 13 11 1 -3 -2 1 4 5
18 18 18 17 15 14 12 12 12 13 13 13 11 10 8 6 5 5 6 8 11 15 19 23 25 25 25 23 21 18 14 11 9 6 0 -10 -2 7 14 16 9 -7 -20 -19 -1 3 1 -1 0 3 6 7 7 7 7 7 6 2 1 4 12 7 -4 -14 -9 -4 2 4 5
28 25 20 16 13 12 12 12 13 13 12 11 9 7 6 5 5 6 8 11 14 18 22 25 25 25 23 21 17 14 12 11 7 -3 -14 -22 12 25 24 16 2 -9 -13 -4 0 3 4 4 5 7 8 8 7 7 6 6 2 -1 2 13 14 -1 -16 -19 -9 -2 2 4 4
25 20 15 12 12 12 13 13 13 12 10 8 6 5 5 5 7 8 11 14 18 21 24 26 25 23 21 17 14 12 11 8 -4 -15 -20 -11 23 32 24 8 -8 -5 7 20 12 8 6 6 8 9 8 7 6 6 6 3 -3 -2 6 21 10 -8 -22 -16 -7 -1 2 3 3
16 13 12 12 12 13 13 12 10 9 7 5 5 5 6 7 9 11 14 17 21 23 25 26 24 21 18 15 14 11 6 -4 -17 -20 -11 10 24 23 11 -7 -21 -1 27 38 22 12 7 8 9 9 8 6 7 8 6 -1 -5 2 14 23 2 -14 -20 -10 -4 -0 2 3 3
12 12 12 12 12 11 10 9 7 6 5 4 5 6 7 9 12 14 17 20 23 24 25 25 22 19 17 16 15 7 -4 -17 -21 -9 9 22 18 7 -7 -22 -20 8 37 37 22 13 8 9 10 8 7 7 11 10 5 -5 -0 11 20 17 -3 -13 -13 -6 -3 0 2 2 2
12 12 12 11 10 8 6 5 4 4 4 5 6 8 10 12 14 17 19 22 24 25 25 23 20 19 17 16 11 -0 -13 -24 -13 9 26 23 6 -8 -20 -30 -1 23 33 24 17 12 10 10 9 8 8 10 12 8 1 -5 6 17 21 12 -1 -7 -7 -5 -2 0 1 1 1
11 10 8 7 6 4 4 3 4 4 5 7 8 10 12 14 17 19 21 24 25 25 24 22 20 19 16 11 2 -9 -18 -19 3 22 29 14 -7 -21 -26 -21 17 27 23 15 13 12 11 10 8 6 5 6 3 -2 -4 -1 11 19 19 8 -0 -4 -5 -3 -1 1 1 1 1
7 6 5 4 3 3 3 4 4 6 7 9 11 13 15 17 19 21 23 25 25 24 23 22 20 16 10 3 -4 -9 -9 -0 17 25 20 1 -19 -28 -22 0 22 23 16 14 12 11 10 9 4 0 -4 -7 -8 -5 0 9 18 18 13 4 -0 -2 -2 -1 -0 0 1 1 1
5 4 3 3 3 3 4 5 6 7 9 11 13 15 17 20 21 23 24 25 24 23 22 21 18 12 4 -2 -3 -1 5 14 18 15 4 -12 -23 -20 -6 17 21 18 14 13 11 10 8 5 -2 -7 -11 -10 -4 3 9 14 15 11 5 2 0 -1 -2 -2 -2 -1 -0 1 2
3 3 3 3 4 4 5 6 8 9 11 13 16 18 20 22 23 24 25 25 24 23 21 19 14 8 2 -2 -1 4 9 12 7 -1 -10 -18 -14 -2 12 22 18 14 12 11 10 8 5 -0 -7 -9 -7 -2 2 5 6 8 6 3 -0 -2 -3 -3 -2 -2 -3 -3 -2 1 2
3 3 4 4 5 5 6 8 9 12 14 16 19 21 22 23 24 24 24 24 23 21 18 15 10 5 -0 -3 -1 3 5 2 -6 -11 -13 -9 2 13 20 20 15 12 10 9 7 5 1 -3 -5 -3 -0 3 1 1 1 1 1 -0 -2 -3 -3 -1 1 1 -1 -2 -1 1 3
4 4 5 5 6 7 8 10 12 15 17 20 21 22 23 24 24 24 23 22 20 17 14 11 6 2 -1 -2 -0 -1 -3 -8 -10 -8 -3 4 10 16 20 18 13 11 9 7 5 2 -0 -1 0 2 3 3 1 -1 -1 -1 0 0 -0 -1 1 3 4 5 4 4 3 4 4
5 5 6 6 7 9 11 13 16 18 20 21 22 23 23 23 23 22 20 18 16 13 10 7 5 3 1 0 -3 -6 -9 -10 -5 1 5 6 11 14 16 14 11 9 8 6 3 1 1 1 2 2 2 2 1 -0 -0 0 1 2 2 2 3 4 4 5 5 5 4 4 5
6 6 7 8 10 12 14 17 19 20 21 21 22 22 21 21 20 19 17 15 12 9 7 6 5 4 1 -4 -8 -9 -8 -5 1 5 7 7 17 16 11 8 8 8 7 6 3 2 1 1 2 2 3 3 2 1 1 2 3 4 3 3 1 -0 -1 -2 -2 -1 1 4 9
8 8 9 11 13 15 18 20 22 22 22 21 21 20 19 18 17 16 15 12 10 8 8 8 6 1 -5 -9 -8 -7 -5 -2 3 6 9 14 28 21 8 4 7 8 7 6 4 2 1 1 3 4 5 5 4 3 3 3 3 2 1 -1 -3 -4 -5 -5 -1 4 10 16 22
10 11 13 15 17 19 21 22 22 22 21 20 19 18 17 15 15 14 13 11 10 10 10 8 1 -6 -9 -8 -5 -5 -5 -3 2 6 12 22 30 21 7 4 5 6 6 6 6 5 4 4 5 6 6 6 5 3 1 -2 -4 -5 -4 -2 0 2 4 8 14 20 25 28 27
15 16 17 19 21 22 23 23 22 21 20 19 18 16 15 13 13 13 13 13 14 13 9 2 -6 -9 -8 -5 -4 -4 -3 -1 3 9 16 23 23 15 6 3 -1 -1 2 6 9 9 8 6 6 6 6 6 3 -1 -7 -12 -13 -7 2 12 19 23 25 27 29 30 29 25 20
20 21 22 22 23 24 23 22 21 20 18 17 16 14 13 12 12 14 15 16 14 8 1 -7 -9 -8 -5 -3 0 4 7 8 11 16 19 16 11 7 3 -1 -8 -8 -4 4 8 9 8 7 6 6 6 5 0 -6 -13 -16 -8 5 20 32 36 37 36 34 31 26 21 15 11
23 25 25 25 24 24 22 21 19 18 16 15 13 12 12 12 14 15 14 11 4 -2 -6 -8 -6 -4 -3 -3 3 10 15 15 15 16 15 9 5 4 3 -1 -7 -6 -3 2 5 6 6 6 6 6 5 3 -3 -9 -12 -8 8 23 34 38 36 33 30 26 21 16 11 9 8
26 27 26 24 23 22 21 19 18 16 14 12 12 12 13 14 13 10 5 -1 -5 -6 -4 -2 0 -0 -2 -5 -2 4 9 11 9 7 6 5 5 6 5 1 -2 -1 0 2 3 4 4 5 5 5 4 -0 -6 -9 -5 7 24 33 35 31 26 22 17 13 10 9 8 9 11
Height
5471 5476 5482 5487 5493 5499 5504 5509 5515 5521 5527 5534 5540 5545 5551 5557 5562 5568 5574 5580 5586 5591 5596 5601 5606 5610 5615 5619 5623 5627 5631 5635 5639 5642 5645 5649 5652 5656 5660 5664 5669 5674 5678 5683 5687 5691 5695 5698 5701 5703 5706 5708 5711 5713 5716 5717 5719 5722 5726 5729 5730 5729 5729 5729 5730 5730 5731 5732 5732
5467 5472 5478 5484 5490 5495 5501 5506 5512 5519 5525 5532 5537 5543 5549 5555 5561 5567 5573 5578 5584 5589 5594 5599 5604 5609 5613 5617 5621 5626 5630 5634 5637 5641 5644 5647 5651 5654 5659 5664 5668 5672 5677 5682 5686 5690 5693 5696 5699 5701 5704 5707 5710 5712 5714 5716 5718 5722 5726 5728 5727 5726 5726 5727 5728 5729 5730 5731 5731
5464 5469 5475 5481 5486 5493 5498 5504 5510 5517 5523 5530 5536 5541 5547 5553 5559 5565 5571 5577 5582 5587 5592 5597 5602 5607 5612 5616 5620 5625 5629 5633 5636 5640 5643 5646 5649 5653 5657 5661 5666 5671 5676 5681 5685 5688 5691 5694 5697 5700 5702 5705 5708 5711 5713 5715 5718 5721 5725 5726 5724 5723 5723 5725 5727 5727 5727 5728 5729
5461 5466 5472 5478 5484 5490 5496 5501 5508 5515 5522 5528 5534 5540 5546 5551 5558 5564 5570 5575 5581 5586 5591 5596 5601 5606 5611 5615 5619 5624 5628 5631 5635 5638 5641 5644 5647 5651 5656 5661 5665 5670 5675 5680 5683 5687 5690 5693 5696 5699 5701 5704 5707 5709 5711 5714 5716 5720 5722 5724 5721 5720 5721 5724 5726 5726 5726 5726 5727
5458 5463 5469 5476 5482 5488 5494 5500 5507 5514 5521 5527 5533 5539 5545 5551 5557 5563 5569 5574 5580 5585 5591 5596 5601 5606 5610 5614 5618 5623 5627 5631 5634 5636 5639 5643 5646 5650 5655 5660 5664 5669 5674 5678 5682 5686 5689 5692 5695 5697 5700 5703 5706 5708 5710 5713 5716 5718 5720 5721 5719 5719 5721 5725 5726 5725 5724 5724 5725
5456 5461 5467 5474 5481 5486 5493 5499 5506 5513 5520 5526 5533 5538 5544 5550 5556 5562 5568 5573 5579 5584 5590 5595 5600 5605 5609 5613 5617 5622 5626 5629 5632 5635 5638 5641 5645 5649 5654 5658 5663 5669 5674 5678 5681 5685 5688 5691 5694 5696 5699 5702 5704 5707 5709 5712 5714 5716 5718 5720 5720 5721 5723 5726 5726 5725 5724 5723 5724
5455 5461 5467 5474 5480 5486 5493 5499 5506 5513 5520 5526 5532 5538 5544 5550 5556 5561 5567 5573 5579 5584 5589 5594 5599 5604 5609 5612 5617 5621 5625 5628 5631 5633 5636 5640 5644 5648 5653 5659 5665 5670 5673 5677 5681 5684 5687 5690 5693 5696 5698 5701 5704 5706 5709 5711 5713 5715 5716 5719 5721 5722 5723 5725 5726 5725 5723 5722 5722
5454 5461 5467 5475 5481 5487 5494 5500 5507 5513 5520 5526 5532 5538 5544 5550 5556 5561 5567 5573 5578 5584 5589 5594 5598 5603 5608 5612 5616 5621 5624 5627 5630 5632 5636 5639 5643 5648 5653 5658 5664 5668 5672 5676 5680 5683 5686 5689 5692 5695 5698 5700 5703 5706 5708 5710 5712 5714 5715 5717 5719 5721 5722 5724 5724 5723 5722 5721 5722
5456 5463 5470 5477 5483 5489 5495 5501 5507 5514 5520 5526 5532 5538 5544 5550 5556 5561 5567 5573 5579 5584 5589 5594 5599 5603 5607 5612 5616 5620 5623 5626 5629 5631 5635 5638 5643 5647 5653 5659 5664 5668 5672 5676 5679 5682 5686 5688 5691 5694 5697 5700 5702 5705 5707 5709 5711 5713 5714 5716 5717 5719 5721 5722 5722 5721 5721 5721 5721
5460 5466 5473 5479 5485 5491 5496 5502 5508 5514 5520 5526 5532 5538 5544 5550 5556 5562 5568 5574 5579 5584 5589 5594 5599 5603 5607 5612 5616 5619 5622 5625 5628 5631 5634 5638 5642 5647 5653 5659 5663 5667 5671 5675 5678 5682 5685 5688 5691 5694 5697 5699 5702 5705 5706 5708 5711 5712 5713 5714 5716 5717 5720 5721 5720 5719 5719 5720 5721
5464 5470 5476 5481 5487 5492 5498 5503 5509 5515 5521 5527 5533 5539 5545 5551 5557 5563 5569 5574 5579 5585 5589 5594 5599 5603 5608 5612 5615 5618 5621 5624 5627 5630 5634 5638 5643 5648 5653 5658 5662 5666 5671 5674 5678 5681 5684 5687 5691 5694 5696 5699 5702 5703 5705 5707 5710 5711 5711 5713 5714 5717 5719 5719 5718 5718 5718 5719 5720
5468 5473 5479 5484 5489 5494 5499 5505 5510 5516 5522 5529 5535 5541 5547 5553 5558 5564 5569 5575 5580 5585 5590 5595 5599 5604 5608 5611 5615 5618 5621 5623 5626 5630 5634 5638 5643 5649 5654 5658 5662 5666 5670 5674 5677 5681 5684 5687 5691 5694 5697 5699 5701 5702 5705 5706 5708 5709 5710 5711 5713 5716 5717 5717 5716 5716 5717 5719 5720
5471 5476 5481 5486 5491 5496 5501 5506 5512 5518 5525 5531 5537 5543 5549 5554 5560 5565 5571 5576 5581 5586 5591 5596 5600 5604 5608 5611 5614 5617 5620 5623 5626 5630 5634 5639 5644 5649 5654 5658 5662 5666 5671 5674 5677 5680 5684 5687 5691 5694 5696 5699 5701 5703 5704 5706 5707 5708 5709 5710 5711 5714 5715 5715 5715 5716 5717 5718 5719
5474 5479 5483 5488 5493 5497 5503 5509 5515 5521 5528 5534 5540 5545 5551 5556 5561 5566 5572 5577 5581 5586 5591 5596 5601 5604 5608 5611 5614 5616 5619 5623 5626 5631 5635 5640 5645 5650 5654 5658 5662 5666 5670 5673 5677 5680 5684 5688 5691 5693 5696 5699 5701 5702 5703 5704 5706 5707 5708 5710 5711 5712 5713 5713 5714 5715 5716 5717 5719
5476 5481 5485 5490 5495 5500 5506 5511 5518 5525 5531 5537 5542 5547 5552 5557 5562 5568 5573 5578 5583 5587 5592 5597 5601 5605 5607 5610 5613 5616 5619 5623 5627 5631 5636 5641 5646 5650 5654 5658 5663 5666 5670 5673 5676 5681 5684 5687 5690 5693 5695 5697 5698 5699 5701 5703 5704 5705 5707 5709 5711 5712 5712 5712 5713 5714 5715 5716 5718
5479 5483 5487 5492 5497 5503 5509 5515 5521 5528 5534 5539 5544 5549 5554 5559 5565 5570 5575 5579 5584 5589 5593 5597 5601 5605 5607 5610 5613 5616 5619 5623 5627 5632 5637 5642 5647 5651 5655 5659 5663 5667 5670 5673 5677 5681 5684 5687 5690 5693 5695 5695 5696 5697 5699 5701 5702 5704 5706 5708 5711 5711 5711 5711 5712 5713 5714 5716 5717
5483 5488 5492 5496 5501 5506 5513 5519 5525 5531 5536 5542 5546 5551 5556 5562 5567 5572 5576 5580 5585 5590 5594 5597 5601 5604 5607 5610 5612 5616 5620 5624 5628 5633 5638 5643 5647 5651 5656 5660 5663 5666 5670 5673 5677 5681 5684 5686 5689 5692 5694 5693 5695 5696 5698 5700 5701 5703 5706 5707 5709 5710 5710 5711 5711 5712 5713 5716 5717
5487 5492 5496 5501 5506 5511 5517 5523 5528 5534 5539 5544 5549 5554 5559 5565 5570 5574 5578 5582 5586 5591 5595 5598 5601 5604 5607 5610 5613 5616 5620 5626 5630 5635 5639 5644 5648 5652 5656 5660 5663 5666 5670 5674 5677 5681 5683 5686 5689 5691 5691 5691 5693 5695 5697 5699 5701 5703 5705 5706 5707 5708 5709 5709 5711 5712 5714 5715 5716
5491 5496 5501 5506 5511 5516 5521 5527 5532 5537 5541 5546 5551 5556 5562 5568 5572 5576 5580 5584 5588 5591 5595 5597 5600 5604 5607 5610 5614 5618 5622 5627 5631 5636 5641 5645 5649 5653 5657 5660 5663 5667 5671 5674 5678 5681 5683 5686 5687 5688 5689 5690 5692 5694 5697 5699 5701 5703 5704 5705 5706 5707 5708 5709 5711 5712 5713 5714 5715
5497 5501 5506 5511 5516 5521 5526 5532 5536 5540 5545 5550 5555 5560 5565 5571 5574 5577 5582 5586 5589 5592 5595 5597 5601 5604 5607 5611 5615 5619 5624 5629 5633 5637 5642 5646 5651 5654 5657 5661 5664 5668 5671 5675 5678 5681 5683 5684 5685 5686 5687 5689 5692 5694 5696 5699 5701 5702 5703 5705 5706 5706 5707 5709 5711 5712 5713 5713 5714
5503 5507 5511 5516 5521 5526 5532 5538 5541 5544 5548 5553 5558 5564 5569 5572 5576 5580 5583 5587 5590 5592 5595 5598 5601 5605 5608 5612 5616 5621 5625 5630 5634 5639 5643 5648 5652 5656 5660 5663 5665 5668 5672 5676 5678 5680 5681 5681 5683 5685 5687 5689 5691 5694 5696 5698 5700 5701 5702 5704 5704 5706 5707 5709 5710 5711 5712 5712 5712
5509 5513 5517 5521 5527 5532 5537 5542 5545 5548 5552 5557 5562 5566 5571 5574 5578 5581 5585 5587 5590 5593 5596 5599 5602 5606 5609 5613 5618 5622 5626 5631 5635 5640 5645 5650 5655 5659 5661 5663 5666 5669 5672 5674 5676 5677 5679 5680 5682 5685 5687 5689 5691 5694 5696 5697 5699 5700 5701 5702 5703 5705 5706 5708 5709 5710 5710 5710 5710
5514 5518 5523 5527 5532 5537 5541 5545 5548 5552 5557 5561 5565 5569 5573 5576 5580 5583 5586 5588 5591 5594 5597 5600 5603 5606 5611 5615 5619 5623 5627 5632 5637 5642 5647 5652 5657 5660 5661 5664 5668 5671 5673 5673 5675 5676 5678 5681 5683 5685 5687 5689 5691 5693 5695 5697 5698 5700 5700 5701 5702 5704 5706 5707 5708 5708 5708 5708 5708
5520 5524 5529 5533 5537 5542 5546 5549 5553 5556 5561 5565 5568 5572 5575 5578 5581 5584 5587 5589 5592 5595 5598 5601 5604 5608 5612 5616 5620 5624 5629 5634 5639 5644 5649 5653 5657 5659 5661 5665 5669 5671 5673 5673 5675 5677 5679 5681 5684 5686 5687 5689 5691 5693 5695 5696 5698 5698 5699 5699 5701 5703 5705 5706 5706 5706 5706 5706 5706
5527 5531 5535 5539 5543 5547 5550 5553 5557 5561 5564 5568 5571 5574 5577 5580 5582 5585 5588 5591 5593 5596 5599 5603 5606 5610 5614 5618 5622 5626 5631 5635 5640 5645 5649 5653 5656 5659 5662 5665 5668 5671 5672 5673 5675 5678 5680 5682 5684 5686 5687 5689 5691 5692 5694 5696 5696 5697 5698 5698 5700 5702 5704 5705 5705 5705 5705 5705 5705
5534 5537 5541 5545 5548 5551 5554 5557 5561 5564 5567 5570 5573 5576 5579 5581 5584 5586 5589 5592 5595 5598 5601 5605 5609 5612 5616 5621 5625 5629 5633 5636 5641 5646 5650 5652 5656 5659 5661 5664 5667 5670 5671 5672 5675 5677 5680 5681 5684 5686 5688 5689 5691 5692 5694 5695 5696 5696 5697 5698 5700 5702 5703 5704 5704 5704 5704 5704 5704
5540 5543 5546 5550 5553 5556 5559 5562 5565 5567 5570 5573 5576 5578 5581 5583 5586 5588 5591 5594 5597 5600 5604 5607 5611 5616 5620 5623 5627 5631 5634 5636 5641 5646 5650 5653 5656 5659 5661 5663 5667 5669 5671 5672 5674 5677 5679 5681 5684 5686 5688 5690 5691 5692 5693 5695 5696 5696 5696 5698 5700 5701 5702 5703 5703 5703 5703 5703 5703
5546 5549 5552 5554 5557 5560 5563 5566 5568 5571 5573 5576 5578 5581 5583 5585 5588 5591 5593 5596 5600 5603 5607 5611 5615 5619 5623 5626 5629 5632 5635 5639 5643 5647 5651 5655 5657 5659 5661 5664 5667 5668 5670 5671 5674 5676 5679 5681 5684 5686 5688 5690 5691 5692 5693 5694 5695 5695 5696 5698 5700 5701 5701 5701 5702 5702 5702 5703 5703
5551 5554 5556 5559 5562 5565 5567 5569 5571 5574 5576 5579 5581 5583 5585 5588 5590 5593 5596 5599 5602 5606 5610 5614 5618 5622 5626 5629 5632 5635 5638 5642 5646 5649 5653 5656 5658 5660 5662 5664 5667 5668 5669 5671 5674 5677 5680 5682 5685 5686 5688 5689 5691 5692 5693 5694 5694 5695 5696 5698 5699 5700 5701 5701 5701 5701 5701 5702 5702
5557 5559 5561 5564 5566 5568 5570 5573 5575 5577 5579 5581 5583 5586 5588 5590 5593 5596 5599 5602 5606 5609 5613 5617 5621 5625 5629 5632 5635 5638 5642 5645 5648 5652 5655 5658 5660 5661 5663 5665 5666 5668 5670 5673 5675 5678 5680 5682 5684 5686 5687 5689 5691 5691 5692 5692 5693 5695 5696 5698 5699 5699 5700 5700 5700 5700 5701 5701 5701
5563 5565 5566 5569 5571 5572 5574 5576 5578 5580 5582 5584 5586 5588 5590 5593 5596 5598 5601 5605 5609 5612 5616 5620 5624 5628 5631 5635 5638 5641 5645 5648 5651 5655 5658 5660 5662 5663 5664 5666 5667 5669 5672 5674 5676 5679 5681 5682 5684 5686 5687 5688 5689 5689 5690 5691 5693 5694 5696 5696 5698 5698 5699 5699 5699 5699 5700 5700 5700
5567 5569 5571 5572 5574 5576 5577 5579 5581 5582 5584 5586 5588 5591 5593 5595 5598 5601 5605 5608 5611 5616 5619 5623 5627 5631 5634 5637 5641 5645 5648 5651 5655 5657 5660 5661 5663 5664 5665 5666 5669 5671 5673 5675 5677 5679 5681 5683 5684 5685 5686 5686 5687 5688 5690 5691 5692 5693 5695 5696 5696 5697 5698 5698 5698 5698 5699 5699 5699
5571 5573 5575 5576 5577 5579 5581 5582 5583 5585 5587 5589 5591 5593 5596 5598 5601 5605 5608 5611 5615 5619 5622 5626 5630 5633 5637 5641 5645 5649 5652 5655 5657 5659 5661 5662 5664 5665 5666 5668 5670 5672 5674 5676 5678 5680 5681 5683 5684 5685 5686 5686 5687 5688 5689 5690 5691 5692 5693 5694 5695 5696 5696 5697 5697 5698 5698 5698 5698
5575 5576 5577 5579 5581 5582 5583 5585 5586 5588 5590 5592 5595 5596 5599 5601 5605 5608 5611 5615 5618 5622 5626 5629 5633 5637 5641 5645 5649 5651 5654 5656 5658 5659 5661 5663 5664 5666 5668 5670 5671 5673 5675 5677 5679 5681 5682 5683 5684 5685 5686 5686 5687 5688 5689 5690 5690 5691 5692 5693 5693 5694 5695 5696 5696 5697 5697 5697 5696
5577 5579 5580 5581 5583 5585 5586 5587 5589 5591 5593 5595 5598 5600 5602 5606 5609 5612 5616 5619 5622 5626 5630 5634 5638 5642 5646 5649 5651 5653 5655 5657 5658 5659 5661 5662 5666 5668 5670 5671 5673 5674 5676 5678 5680 5681 5682 5683 5684 5685 5685 5686 5687 5687 5688 5689 5690 5691 5691 5692 5693 5693 5694 5695 5695 5696 5695 5695 5695
5580 5581 5583 5584 5586 5587 5589 5590 5592 5593 5595 5598 5601 5603 5606 5610 5613 5616 5620 5624 5627 5631 5635 5639 5642 5646 5648 5651 5653 5655 5656 5657 5658 5659 5661 5663 5667 5670 5671 5672 5674 5676 5677 5679 5680 5681 5682 5683 5684 5684 5685 5686 5687 5688 5688 5689 5690 5691 5691 5692 5692 5693 5693 5694 5694 5694 5694 5693 5693
5583 5584 5586 5587 5588 5590 5591 5593 5595 5596 5599 5601 5604 5607 5610 5614 5617 5621 5624 5628 5632 5636 5639 5643 5646 5649 5651 5653 5655 5656 5658 5658 5659 5660 5662 5665 5668 5670 5671 5673 5675 5677 5678 5679 5681 5681 5682 5682 5683 5684 5685 5686 5687 5688 5689 5689 5690 5691 5691 5691 5692 5692 5692 5692 5692 5692 5692 5691 5691
5587 5588 5589 5590 5591 5593 5595 5596 5598 5600 5602 5605 5608 5611 5615 5618 5622 5626 5629 5632 5636 5640 5643 5646 5649 5652 5654 5656 5657 5658 5658 5659 5660 5661 5664 5667 5668 5670 5672 5674 5676 5677 5678 5679 5679 5680 5681 5682 5683 5684 5685 5686 5687 5688 5689 5689 5690 5690 5690 5690 5690 5690 5690 5690 5690 5690 5690 5690 5690
5592 5592 5593 5594 5595 5596 5598 5600 5602 5605 5607 5610 5613 5616 5620 5623 5626 5630 5634 5637 5640 5644 5647 5650 5652 5654 5656 5657 5657 5658 5659 5660 5661 5664 5666 5668 5669 5670 5672 5673 5675 5676 5676 5677 5678 5679 5680 5681 5683 5684 5685 5686 5687 5687 5688 5688 5689 5689 5689 5689 5689 5689 5689 5689 5689 5689 5689 5689 5689
5596 5597 5597 5598 5599 5601 5603 5605 5607 5610 5612 5615 5618 5621 5625 5628 5631 5635 5638 5641 5644 5647 5650 5652 5654 5656 5657 5657 5657 5658 5660 5661 5664 5666 5667 5667 5669 5670 5672 5673 5674 5675 5676 5676 5678 5679 5680 5681 5682 5684 5684 5685 5686 5686 5687 5687 5688 5688 5688 5687 5688 5688 5688 5688 5688 5688 5688 5688 5688
5600 5601 5602 5603 5604 5605 5607 5609 5612 5615 5617 5620 5623 5626 5629 5632 5636 5639 5642 5645 5648 5650 5652 5654 5655 5656 5657 5657 5658 5659 5661 5663 5665 5666 5667 5668 5669 5671 5672 5673 5674 5675 5676 5677 5678 5679 5680 5681 5682 5683 5684 5684 5685 5686 5686 5687 5687 5687 5687 5687 5687 5687 5687 5687 5687 5687 5687 5687 5687